| time (UTC) | temp F | wind direction | speed MPH | gust MPH | rain 1hr in | rain 24hr in | rain mn in | humidity % | barometer mb |
| 20260503034529 | 38 | 257 | 0.0 | 0.0 | 0.00 | 0.02 | 0.02 | 89 | 1016.7 |
| 20260503033015 | 38 | 257 | 0.0 | 0.0 | 0.00 | 0.02 | 0.02 | 88 | 1016.7 |
| 20260503031519 | 38 | 257 | 0.0 | 1.0 | 0.00 | 0.02 | 0.02 | 88 | 1016.7 |
| 20260503030021 | 38 | 257 | 0.0 | 0.0 | 0.00 | 0.02 | 0.02 | 88 | 1016.7 |
| 20260503024526 | 38 | 257 | 0.0 | 0.0 | 0.00 | 0.02 | 0.02 | 88 | 1016.9 |
| 20260503023027 | 38 | 257 | 0.0 | 0.0 | 0.00 | 0.02 | 0.02 | 87 | 1017.1 |
| 20260503021519 | 38 | 257 | 0.0 | 0.0 | 0.00 | 0.02 | 0.02 | 85 | 1017.0 |
| 20260503020032 | 38 | 257 | 0.0 | 0.0 | 0.00 | 0.02 | 0.02 | 84 | 1017.0 |
| 20260503014504 | 39 | 257 | 0.0 | 0.0 | 0.00 | 0.02 | 0.02 | 84 | 1017.0 |
| 20260503013004 | 39 | 257 | 0.0 | 0.0 | 0.00 | 0.02 | 0.02 | 83 | 1017.0 |
| 20260503011512 | 39 | 257 | 0.0 | 1.0 | 0.00 | 0.02 | 0.02 | 81 | 1016.9 |
| 20260503010016 | 40 | 257 | 0.0 | 0.0 | 0.00 | 0.02 | 0.02 | 81 | 1016.8 |
| 20260503004504 | 40 | 257 | 0.0 | 0.0 | 0.00 | 0.02 | 0.02 | 81 | 1016.7 |
| 20260503003007 | 41 | 257 | 0.0 | 0.0 | 0.00 | 0.02 | 0.02 | 79 | 1016.7 |
| 20260503001510 | 41 | 257 | 0.0 | 0.0 | 0.00 | 0.02 | 0.02 | 76 | 1016.8 |
| 20260503000024 | 41 | 257 | 0.0 | 1.0 | 0.00 | 0.02 | 0.02 | 74 | 1016.7 |
| 20260502234530 | 42 | 257 | 0.0 | 1.0 | 0.00 | 0.02 | 0.02 | 72 | 1016.6 |
| 20260502233023 | 42 | 257 | 0.0 | 1.0 | 0.00 | 0.02 | 0.02 | 72 | 1016.5 |
| 20260502231508 | 42 | 257 | 0.0 | 1.0 | 0.00 | 0.02 | 0.02 | 73 | 1016.5 |
| 20260502230008 | 42 | 257 | 0.0 | 1.0 | 0.00 | 0.02 | 0.02 | 71 | 1016.5 |
| 20260502224516 | 43 | 255 | 1.0 | 3.0 | 0.00 | 0.02 | 0.02 | 70 | 1016.5 |
| 20260502223034 | 42 | 250 | 0.0 | 2.0 | 0.00 | 0.02 | 0.02 | 69 | 1016.4 |
| 20260502221522 | 42 | 276 | 0.0 | 1.0 | 0.00 | 0.02 | 0.02 | 70 | 1016.5 |
| 20260502220007 | 42 | 288 | 0.0 | 0.0 | 0.00 | 0.02 | 0.02 | 71 | 1016.6 |
| 20260502214512 | 42 | 288 | 0.0 | 1.0 | 0.00 | 0.02 | 0.02 | 72 | 1016.5 |
| 20260502213016 | 42 | 323 | 0.0 | 1.0 | 0.00 | 0.02 | 0.02 | 69 | 1016.3 |
| 20260502211530 | 42 | 241 | 0.0 | 1.0 | 0.00 | 0.02 | 0.02 | 70 | 1016.3 |
| 20260502210021 | 42 | 211 | 0.0 | 1.0 | 0.00 | 0.02 | 0.02 | 71 | 1016.2 |
| 20260502204509 | 42 | 120 | 0.0 | 3.0 | 0.00 | 0.02 | 0.02 | 71 | 1016.2 |
| 20260502203012 | 42 | 230 | 0.0 | 1.0 | 0.00 | 0.02 | 0.02 | 69 | 1016.2 |
| 20260502201517 | 42 | 121 | 1.0 | 3.0 | 0.00 | 0.02 | 0.02 | 70 | 1016.2 |
| 20260502200022 | 43 | 249 | 0.0 | 2.0 | 0.00 | 0.02 | 0.02 | 72 | 1016.1 |
| 20260502194529 | 43 | 324 | 0.0 | 2.0 | 0.00 | 0.06 | 0.02 | 70 | 1016.2 |
| 20260502193010 | 44 | 255 | 0.0 | 2.0 | 0.00 | 0.12 | 0.02 | 71 | 1016.2 |
| 20260502191512 | 45 | 223 | 0.0 | 3.0 | 0.00 | 0.23 | 0.02 | 69 | 1016.3 |
| 20260502190020 | 45 | 271 | 0.0 | 1.0 | 0.00 | 0.27 | 0.02 | 70 | 1016.4 |
| 20260502184525 | 46 | 290 | 0.0 | 3.0 | 0.00 | 0.28 | 0.02 | 68 | 1016.4 |
| 20260502183024 | 45 | 28 | 0.0 | 4.0 | 0.00 | 0.29 | 0.02 | 70 | 1016.4 |
| 20260502181510 | 46 | 84 | 2.0 | 5.0 | 0.00 | 0.29 | 0.02 | 71 | 1016.4 |
| 20260502163037 | 40 | 98 | 0.0 | 2.0 | 0.00 | 0.35 | 0.02 | 87 | 1017.0 |
| 20260502161535 | 40 | 307 | 0.0 | 2.0 | 0.01 | 0.36 | 0.02 | 87 | 1017.0 |
| 20260502151520 | 39 | 314 | 1.0 | 4.0 | 0.01 | 0.35 | 0.01 | 87 | 1016.5 |
| 20260502123009 | 41 | 98 | 0.0 | 1.0 | 0.00 | 0.43 | 0.00 | 83 | 1015.4 |
| 20260502121510 | 40 | 130 | 0.0 | 1.0 | 0.00 | 0.43 | 0.00 | 86 | 1015.5 |
| 20260502114519 | 36 | 165 | 0.0 | 1.0 | 0.00 | 0.43 | 0.00 | 95 | 1015.5 |
| 20260502113004 | 35 | 165 | 0.0 | 0.0 | 0.00 | 0.43 | 0.00 | 95 | 1015.5 |
| 20260502111507 | 33 | 165 | 0.0 | 0.0 | 0.00 | 0.43 | 0.00 | 95 | 1015.3 |
| 20260502110016 | 33 | 165 | 0.0 | 0.0 | 0.00 | 0.43 | 0.00 | 94 | 1015.3 |
| 20260502104519 | 33 | 165 | 0.0 | 0.0 | 0.00 | 0.43 | 0.00 | 94 | 1015.4 |
| 20260502103020 | 33 | 165 | 0.0 | 0.0 | 0.00 | 0.43 | 0.00 | 94 | 1015.2 |
| 20260502101509 | 34 | 165 | 0.0 | 0.0 | 0.00 | 0.43 | 0.00 | 94 | 1015.1 |
| 20260502091524 | 35 | 163 | 0.0 | 0.0 | 0.00 | 0.43 | 0.00 | 93 | 1015.1 |
| 20260502071513 | 39 | 277 | 0.0 | 1.0 | 0.00 | 0.43 | 0.00 | 93 | 1014.8 |
| 20260502070021 | 39 | 277 | 0.0 | 0.0 | 0.00 | 0.43 | 0.00 | 93 | 1014.9 |
| 20260502064528 | 39 | 277 | 0.0 | 0.0 | 0.00 | 0.43 | 0.00 | 93 | 1015.1 |
| 20260502063007 | 39 | 277 | 0.0 | 0.0 | 0.00 | 0.43 | 0.00 | 93 | 1015.2 |
| 20260502061511 | 39 | 277 | 0.0 | 0.0 | 0.00 | 0.43 | 0.00 | 93 | 1015.3 |
| 20260502060017 | 40 | 277 | 0.0 | 1.0 | 0.00 | 0.43 | 0.00 | 93 | 1015.5 |
| 20260502054522 | 40 | 276 | 0.0 | 0.0 | 0.00 | 0.43 | 0.00 | 93 | 1015.7 |
| 20260502053026 | 40 | 276 | 0.0 | 0.0 | 0.00 | 0.43 | 0.00 | 93 | 1015.4 |
| 20260502051509 | 40 | 276 | 0.0 | 0.0 | 0.00 | 0.43 | 0.00 | 92 | 1015.6 |
| 20260502050015 | 39 | 276 | 0.0 | 1.0 | 0.00 | 0.43 | 0.00 | 93 | 1015.5 |
| 20260502044516 | 39 | 248 | 0.0 | 0.0 | 0.00 | 0.43 | 0.00 | 93 | 1015.5 |
| 20260502043030 | 39 | 248 | 0.0 | 1.0 | 0.00 | 0.43 | 0.00 | 92 | 1015.8 |
| 20260502041504 | 39 | 248 | 0.0 | 0.0 | 0.00 | 0.43 | 0.00 | 92 | 1015.6 |
| 20260502040011 | 39 | 248 | 0.0 | 0.0 | 0.00 | 0.43 | 0.00 | 93 | 1015.7 |